{"data":{"norad_id":57715,"intl_designator":"2023-129T","name":"STARLINK-30300","alt_names":[],"object_type":"PAYLOAD","status":"ACTIVE","operator":null,"country":"US","launch_date":"2023-08-27","launch_site_code":"AFETR","launch_vehicle":null,"mission":null,"orbit_class":"UNKNOWN","rcs_meters":null,"size_class":null,"mass_kg":null,"dimensions":null,"purposes":["comms"],"wikipedia_slug":null,"has_3d_model":false,"image_url":null,"decayed_at":null,"tle_current":{"epoch":"2026-09-20T21:05:05.725536Z","epoch_age_seconds":98421,"freshness":"FRESH","line1":"1 57715U 23129T   26263.87853849  .00000559  00000+0  29830-4 0  9997","line2":"2 57715  43.0019  95.6248 0001381 271.9484  88.1210 15.27591860170536","mean_motion":15.2759186,"eccentricity":0.0001381,"inclination_deg":43.0019,"raan_deg":95.6248,"arg_perigee_deg":271.9484,"mean_anomaly_deg":88.121,"bstar":2.983e-5,"rev_number":17053,"period_min":94.266016840388,"perigee_km":482.06605826727,"apogee_km":483.96110805834,"semimajor_km":6861.1505831628,"source":"CELESTRAK","updated_at":"2026-09-21T09:00:33.677019Z"}}}